Location: Bambrugge
(50.9212°N, 3.9299°E)
Time: 21:42:00
(UTC+00:00)

Cosmos 1674 Rocket - Pass Details

Date: 23 May 2024
Orbit: 598 x 627 km, 82.5° (Epoch: 14 June)

Event Time Altitude Azimuth Distance (km) Brightness Sun altitude
Exits shadow 02:52:30 - 188° (S) 2,626 6.3 -7.0°
Reaches altitude 10° 02:54:02 10° 188° (S) 2,000 5.7 -6.8°
Maximum altitude 02:58:29 88° 100° (E) 634 3.7 -6.3°
Drops below altitude 10° 03:02:57 10° 11° (N) 2,007 7.1 -5.8°
Sets 03:05:11 0° 11° (N) 2,914 8.0 -5.6°
